Location: Asheville, NC
(35.6000°N, 82.5500°W)
Time: 09:17:52
(UTC-04:00)

Vanguard 2 Rocket - Pass Details

Date: 16 March 2018
Orbit: 553 x 3328 km, 32.9° (Epoch: 24 June)

Event Time Altitude Azimuth Distance (km) Brightness Sun altitude
Rises 01:33:45 0° 255° (WSW) 4,444 - -56.1°
Reaches altitude 10° 01:40:10 10° 222° (SW) 4,189 - -56.1°
Maximum altitude 01:42:40 11° 209° (SSW) 4,378 - -56.1°
Drops below altitude 10° 01:45:26 10° 196° (SSW) 4,727 - -56.1°
Sets 01:55:15 0° 167° (SSE) 6,560 - -55.9°
